Regional Weather Roundup
Issued by NWS Sioux Falls, SD

Home | Current Version | Previous Version | Text Only | Print | Product List | Glossary Off
Versions: 1 2 3 4 5 6 7 8 9 10 11 12 13 14 15 16 17 18 19 20 21 22 23 24 25 26 27 28 29 30 31 32 33 34 35 36 37 38 39 40 41 42 43 44 45 46 47 48 49 50

000
ASUS43 KFSD 150910
RWRFSD

WEATHER ROUNDUP FOR SE SOUTH DAKOTA/SW MINNESOTA/NW IOWA
NATIONAL WEATHER SERVICE SIOUX FALLS SD
300 AM CST FRI DEC 15 2017

NOTE: "FAIR" INDICATES FEW OR NO CLOUDS BELOW 12,000 FEET WITH NO
SIGNIFICANT WEATHER AND OR OBSTRUCTIONS TO VISIBILITY.


SDZ038>040-050-052>070-151000-
SOUTHEAST SOUTH DAKOTA

CITY           SKY/WX    TMP DP  RH WIND       PRES   REMARKS
BROOKINGS      CLOUDY    30  26  85 W13       29.94F WCI  20
CHAMBERLAIN    CLEAR     31  28  90 W9        30.01F WCI  23
HURON          CLOUDY    34  26  72 W12       29.98F WCI  25
MADISON        CLOUDY    28  28 100 W9        29.96F WCI  20
MITCHELL       CLOUDY    34  27  75 W13       30.01F WCI  25
SIOUX FALLS    CLOUDY    31  27  85 W7        29.99F WCI  24
WINNER         FAIR      28  23  81 SW8       30.03F WCI  20
YANKTON        CLOUDY    34  24  67 W12       30.03F WCI  25
$$

MNZ071-072-080-081-089-090-097-098-151000-
SOUTHWEST MINNESOTA

CITY           SKY/WX    TMP DP  RH WIND       PRES   REMARKS
FAIRMONT       FLURRIES  27  22  81 W13       29.97F WCI  16
JACKSON        FLURRIES  28  23  80 MISG      29.96F
LUVERNE        CLOUDY    28  27  93 W7        29.99S WCI  21
MARSHALL       CLOUDY    30  27  88 W13       29.94F WCI  20
MONTEVIDEO     CLOUDY    28  27  93 CALM      29.93S
PIPESTONE      CLOUDY    28  25  86 W9        29.94F WCI  20
REDWOOD FALLS  CLOUDY    29  27  92 W10       29.94F WCI  20
TRACY          CLOUDY    30  27  86 W9G16     29.94F WCI  22
WINDOM         LGT SNOW  27  16  63 W10       29.95F WCI  17
WORTHINGTON    FLURRIES  27  24  89 W15       29.96F WCI  15
$$

IAZ001>003-012>014-020>022-031-032-NEZ013-014-SDZ071-151000-
NORTHWEST IOWA

CITY           SKY/WX    TMP DP  RH WIND       PRES   REMARKS
CHEROKEE       CLOUDY    29  25  85 SW5       30.02F WCI  24
DENISON        CLOUDY    28  25  86 SW7       30.08F WCI  21
ESTHERVILLE    CLOUDY    26  23  88 W12       29.98F WCI  16
LE MARS        CLOUDY    30  27  86 SW8       30.03F WCI  23
ORANGE CITY    CLOUDY    30  27  86 W13       30.01F WCI  20
SHELDON        CLOUDY    28  27  93 SW12      29.99S WCI  18
SIOUX CITY     CLOUDY    31  26  82 SW3       30.06F
SPENCER        CLOUDY    28  24  85 W9        30.00F WCI  19
STORM LAKE     CLOUDY    28  23  80 W9        30.02S WCI  20
$$

ABBREVIATIONS USED IN REMARKS
   TC - TEMPERATURE IN CELSIUS
  WCI - WIND CHILL INDEX
   HX - HEAT INDEX
  VSB - VISIBILITY





USA.gov is the U.S. government's official web portal to all federal, state and local government web resources and services.